Temperature
12 12 12 12 12 12 12 12 12 12 12 12 12 12 12 12 12 12 11 11 11 11 11 11 11 11 11 11 11 11 11 11 11 11 11 11 11 11 11 11 11 11 11
11 11 11 11 12 12 11 11 11 11 11 11 11 11 11 11 11 11 11 11 11 11 11 11 11 11 11 11 11 11 11 11 11 11 11 11 10 10 10 10 10 10 10
11 11 11 11 11 11 11 11 11 11 11 11 11 11 11 11 11 11 11 11 11 11 11 11 11 11 11 11 11 11 11 11 11 11 10 10 10 10 10 10 10 9 9
10 10 10 10 11 10 10 11 11 11 10 10 10 10 10 10 10 10 10 10 10 10 10 10 10 10 10 10 10 10 10 10 10 10 10 10 10 9 9 9 9 9 9
10 10 10 10 10 10 10 10 10 10 10 10 10 10 10 10 10 10 10 10 10 10 10 10 10 10 10 10 10 10 10 10 10 10 10 9 9 9 9 9 9 9 9
10 10 10 10 10 10 10 10 10 10 10 10 10 9 9 9 9 9 9 9 9 9 9 10 10 10 9 10 10 10 10 10 10 9 9 9 9 9 8 8 8 8 8
9 9 9 9 9 9 9 9 9 9 9 9 9 9 9 9 9 9 9 9 9 9 9 9 9 9 9 9 9 9 9 9 9 9 9 8 8 8 8 8 8 8 8
9 9 9 9 9 9 9 9 9 9 9 9 8 8 8 8 8 9 9 9 9 9 9 9 9 9 9 9 9 9 9 9 9 8 8 8 8 8 8 8 7 7 7
9 9 8 9 9 9 9 9 9 9 9 8 8 8 8 8 8 8 8 8 9 8 8 8 8 8 8 8 8 8 9 8 8 8 8 8 8 7 7 7 7 7 7
8 8 8 8 8 8 8 8 8 8 8 8 8 8 8 8 7 7 8 8 8 8 8 8 8 8 8 8 8 8 8 8 8 8 8 8 7 7 7 7 7 6 6
8 8 8 8 8 8 8 8 8 8 8 8 8 8 8 8 8 7 7 7 8 8 8 8 8 8 8 8 8 8 8 8 7 7 7 7 7 7 6 6 6 6 6
7 7 7 7 7 7 8 8 8 7 7 7 7 7 7 7 7 7 7 7 7 7 7 7 7 7 7 7 7 7 7 7 7 7 7 7 6 6 6 6 6 6 6
7 7 7 7 7 7 7 7 7 7 7 7 7 7 7 7 7 7 7 6 6 7 7 7 7 7 7 7 7 7 7 7 7 6 6 6 6 6 6 6 6 6 5
7 7 7 7 7 7 7 7 7 7 7 7 7 6 6 6 6 6 6 6 6 6 6 6 7 7 7 7 7 6 6 6 6 6 6 6 6 6 6 6 6 5 5
6 6 6 6 6 6 6 6 6 6 6 6 6 6 6 6 6 6 6 6 6 5 5 6 6 6 6 6 6 6 6 6 6 6 6 6 5 5 5 5 5 5 5
6 6 6 6 6 6 6 6 6 6 6 6 6 6 6 6 6 6 6 6 5 5 5 5 5 5 6 6 6 5 5 5 5 5 5 5 5 5 5 5 5 4 4
5 5 5 6 6 6 6 6 6 6 6 6 6 6 6 6 5 5 5 5 5 5 5 5 5 5 5 5 5 5 5 5 5 5 5 5 5 4 4 4 4 4 4
5 5 5 5 5 5 5 5 5 5 5 5 5 5 5 5 5 5 5 5 5 5 5 5 4 4 5 4 5 5 4 4 4 4 4 4 4 4 4 4 4 4 3
4 4 4 5 5 5 5 5 5 5 5 5 5 5 5 5 5 5 5 5 4 4 4 4 4 4 4 4 4 4 4 4 3 3 3 3 3 3 3 3 3 3 3
4 4 4 4 4 4 4 4 4 4 4 4 4 4 4 4 4 4 4 4 4 4 4 4 3 3 3 3 3 3 3 3 3 3 3 3 3 3 3 3 3 3 3
3 3 3 4 4 4 4 4 4 4 4 4 4 4 4 4 4 4 4 4 4 3 3 3 3 3 3 3 3 3 2 2 2 2 2 2 2 2 2 2 2 2 2
3 3 3 3 3 3 3 3 3 3 3 3 3 3 3 3 3 3 3 3 3 3 3 3 3 2 2 2 2 2 2 2 1 2 2 2 2 1 1 1 2 1 1
2 2 3 3 3 3 3 3 3 3 2 2 3 3 3 3 3 3 3 3 2 2 2 2 2 2 2 2 2 1 1 1 1 1 1 1 1 1 1 1 1 1 1
2 2 2 2 2 2 2 2 2 2 2 2 2 2 2 2 2 2 2 2 2 2 2 2 2 2 1 1 1 1 1 1 1 1 0 0 1 0 0 0 0 0 0
1 1 1 1 2 2 2 2 2 1 2 1 1 1 1 1 1 1 1 1 1 1 1 1 1 1 1 1 1 1 0 0 0 0 -0 -0 -0 -0 -0 -0 -0 -0 -0
1 1 1 1 1 1 1 1 1 1 1 1 1 1 1 1 1 1 1 1 1 1 1 1 1 1 1 0 0 -0 -0 -0 -1 -1 -1 -1 -1 -1 -2 -1 -1 -1 -1
Wind_Speed
2 2 2 2 2 2 3 3 3 4 4 4 5 5 4 4 4 4 4 4 4 4 4 4 4 5 6 7 7 7 8 8 7 6 6 6 7 6 6 5 5 5 5
3 2 1 1 1 2 3 3 3 3 3 3 3 4 4 4 4 4 3 3 4 4 4 4 4 5 5 5 6 7 7 7 6 6 6 6 5 5 5 4 4 4 4
3 3 2 1 1 2 3 3 4 3 3 2 2 2 3 4 4 4 3 3 3 2 3 4 4 5 5 4 5 6 7 7 6 6 5 5 5 5 4 4 3 3 3
3 3 2 2 2 3 3 3 3 3 2 2 2 2 2 3 3 3 3 2 3 2 2 4 5 5 5 4 5 5 6 6 6 6 5 5 5 4 4 3 3 3 2
3 3 2 2 2 3 3 3 3 3 3 2 2 2 1 2 2 2 2 2 2 2 2 3 4 5 4 4 5 5 5 6 6 6 5 5 5 4 3 3 2 2 1
3 3 2 2 2 2 2 3 3 3 3 3 3 2 2 1 2 1 1 2 2 2 2 3 4 4 4 4 4 5 5 5 6 6 6 5 5 5 4 3 2 2 2
3 3 2 2 2 3 3 3 3 3 2 3 3 2 2 2 1 1 1 1 1 1 2 3 3 3 3 3 4 4 5 6 6 6 7 6 6 6 5 5 4 3 3
3 3 3 3 3 3 3 4 4 3 2 3 3 3 1 1 1 1 0 1 0 0 1 2 3 3 3 2 2 4 5 5 7 7 7 7 7 7 6 5 5 4 4
3 3 3 3 3 3 4 4 4 4 3 2 2 3 3 3 1 1 1 0 0 0 0 1 2 3 4 3 3 3 4 5 6 6 7 8 8 7 7 6 6 6 5
2 3 3 4 4 3 4 4 3 3 5 4 2 1 1 3 3 1 1 1 1 1 2 1 2 2 3 3 3 3 4 4 5 6 7 8 9 9 8 8 7 6 6
1 2 3 3 4 3 4 4 4 4 4 4 3 2 2 1 1 2 2 1 1 1 2 2 2 3 4 4 4 4 5 5 6 6 7 8 9 9 9 8 7 7 6
1 2 3 3 3 3 4 5 4 5 5 4 4 3 3 3 3 2 2 2 2 2 2 2 3 3 4 4 5 5 6 6 7 7 8 8 9 9 9 9 8 7 7
1 2 3 3 3 4 4 5 5 5 5 6 5 4 3 3 3 3 3 2 2 2 1 2 3 4 4 4 5 6 6 7 7 7 7 7 8 8 8 8 8 7 7
3 3 3 3 4 4 4 4 4 5 5 5 5 5 4 3 3 3 4 3 2 2 2 3 2 3 4 5 6 5 5 6 7 7 8 7 7 7 7 7 7 8 8
2 2 3 3 3 3 4 4 4 4 5 5 5 5 4 3 3 3 3 4 4 3 5 4 2 2 3 4 5 4 5 6 6 7 7 6 6 7 7 7 7 7 7
2 2 3 3 3 3 3 3 3 3 5 5 4 5 5 4 3 3 4 3 3 4 4 3 3 2 2 2 3 3 4 5 5 5 5 5 5 6 6 7 7 6 7
3 3 3 3 3 3 3 3 3 4 5 4 5 6 6 5 4 4 3 3 3 3 4 3 2 1 2 2 1 1 2 3 3 4 5 5 5 6 6 6 6 7 8
3 3 3 3 3 3 3 4 4 4 5 5 5 5 5 4 5 4 4 4 4 4 4 4 2 2 2 2 1 1 1 2 3 3 4 5 5 6 6 6 6 7 8
3 3 3 4 4 3 4 4 4 4 5 5 5 5 5 5 5 4 5 5 4 3 3 4 3 2 1 1 0 1 1 1 2 2 3 4 5 5 5 6 6 6 7
3 3 3 3 3 3 4 4 4 4 4 4 4 5 5 6 6 5 5 5 4 4 3 3 3 2 2 1 1 1 1 1 1 2 2 3 4 4 5 5 6 6 6
2 2 2 2 3 3 3 4 4 4 4 4 4 4 5 6 7 6 5 5 5 4 4 3 3 2 2 2 2 2 2 1 2 1 1 2 2 3 4 5 5 6 6
2 2 2 3 3 3 4 5 4 4 4 4 4 4 4 5 6 7 7 7 7 6 5 4 3 4 4 4 3 3 2 1 2 2 1 2 1 3 4 5 6 6 6
1 2 2 2 3 4 4 5 5 4 4 4 4 4 3 3 4 3 4 5 6 7 6 5 5 6 5 5 5 4 3 3 3 2 1 2 2 3 4 5 6 7 7
2 2 2 2 2 3 4 4 4 3 3 3 3 3 3 3 3 3 3 2 2 3 4 3 4 4 4 5 5 4 3 1 1 1 2 2 2 3 3 4 6 5 6
2 2 2 2 2 3 4 4 3 2 2 2 2 2 2 3 4 4 3 3 1 1 1 1 1 2 3 4 4 3 3 2 2 2 1 2 1 2 2 3 4 2 1
2 1 1 2 2 3 3 3 3 2 2 2 1 1 2 2 3 4 3 3 2 1 1 2 2 1 1 2 2 3 3 3 2 2 2 2 1 1 2 1 2 3 3
Wind_Direction
129 111 97 89 94 111 116 116 119 119 120 125 129 130 130 136 137 139 145 152 157 162 167 166 160 151 142 139 137 136 135 129 122 120 127 132 127 127 125 118 114 114 105
130 128 128 115 110 129 134 134 135 130 126 125 123 131 136 136 138 142 145 155 163 169 178 185 179 170 157 152 149 147 145 140 135 130 127 124 128 133 126 132 130 128 123
143 142 151 159 165 142 129 119 121 120 120 118 131 122 129 133 136 142 148 155 164 185 195 191 189 179 173 167 164 160 156 150 149 145 138 132 121 119 129 126 138 142 135
154 144 155 175 173 143 135 143 144 146 146 139 136 132 114 125 134 135 137 143 150 167 197 197 191 180 180 179 176 176 171 167 165 162 160 153 147 143 134 130 132 126 143
159 151 159 163 157 144 148 161 154 158 160 149 138 117 102 111 111 120 120 138 149 150 170 194 187 179 182 191 193 194 191 186 181 178 178 173 168 166 164 158 146 162 149
159 148 152 153 152 156 164 163 158 150 156 154 135 103 77 71 77 90 131 144 149 165 178 182 183 188 191 196 203 205 206 200 194 188 188 188 187 193 193 190 193 197 205
163 157 161 162 166 177 182 169 159 152 144 133 116 97 47 49 71 68 80 90 84 185 184 184 178 182 194 201 212 218 217 212 200 201 201 204 206 212 210 210 210 220 231
177 170 175 181 180 176 174 171 159 157 155 148 140 140 130 342 324 320 58 129 96 86 152 195 180 179 185 195 225 231 229 221 218 214 214 219 220 218 217 219 227 235 238
196 183 186 180 180 180 186 188 180 167 170 180 162 156 160 204 216 306 284 260 251 186 231 221 205 196 192 195 217 223 222 229 232 230 226 225 225 224 224 227 234 242 246
210 191 188 182 181 183 186 195 190 180 171 179 172 140 144 152 162 206 302 276 256 242 237 248 231 213 206 198 217 216 215 229 237 240 243 239 234 231 229 230 232 241 247
217 193 189 185 189 192 195 193 188 185 183 184 180 168 145 119 137 169 226 266 296 263 242 236 233 221 219 214 223 229 228 237 243 249 254 250 244 237 232 231 234 238 246
222 202 192 187 190 194 199 197 195 193 193 187 186 179 172 171 176 170 196 219 247 270 264 236 223 224 223 224 232 239 236 244 250 256 260 258 255 250 244 239 239 240 246
232 217 208 201 200 200 199 193 195 199 195 192 195 195 195 195 175 175 181 205 244 279 277 254 232 226 227 228 234 242 245 248 254 257 260 264 262 258 252 247 241 242 248
221 214 211 210 209 203 201 198 201 202 199 198 200 195 196 199 184 186 181 181 223 272 270 261 268 232 225 227 233 239 246 250 254 256 260 262 264 260 253 248 247 245 248
231 207 211 214 212 206 204 200 206 206 198 200 200 198 202 202 191 196 192 194 194 229 253 250 252 251 235 230 237 233 240 251 255 255 258 260 263 256 250 247 247 244 245
220 206 206 209 212 210 206 200 203 210 206 207 200 198 205 207 200 192 195 206 203 208 237 240 237 253 248 245 251 248 247 259 260 251 249 253 259 258 248 245 244 245 248
214 210 211 211 208 205 205 207 213 202 208 210 205 201 206 197 197 198 194 201 201 202 236 260 245 243 231 222 264 258 267 262 262 254 249 250 255 253 248 247 247 247 248
218 213 208 209 212 211 207 210 218 214 211 211 209 203 208 199 198 197 197 202 206 206 215 241 250 247 245 221 216 223 274 258 254 258 255 258 259 258 257 258 256 250 246
223 215 206 211 215 216 217 220 215 219 220 219 212 208 208 197 205 203 200 200 203 207 207 216 236 247 259 231 221 297 286 286 270 265 256 257 259 264 265 266 267 263 255
223 220 218 219 221 218 221 222 216 216 220 223 218 214 210 205 207 201 203 202 198 199 197 202 219 231 237 221 173 226 293 289 286 282 250 253 260 272 272 269 267 266 268
238 225 226 230 234 229 226 223 215 216 216 222 226 223 220 215 213 208 206 199 192 194 194 201 212 229 232 217 219 212 240 277 293 249 247 270 277 276 274 268 265 264 265
246 224 226 227 232 241 246 234 224 217 218 222 229 231 227 221 221 219 216 208 197 197 203 209 221 222 229 222 210 206 207 234 263 225 217 284 274 268 265 264 265 268 261
234 234 234 226 233 246 248 239 226 217 218 222 221 220 224 220 211 207 214 213 217 220 214 210 215 222 220 211 196 202 215 228 237 214 198 266 272 273 278 271 272 265 257
226 232 241 240 244 257 251 242 228 215 217 218 214 207 205 210 207 194 186 197 220 229 226 213 209 215 212 196 194 199 199 202 299 259 188 239 264 277 292 294 283 271 253
243 250 247 239 241 259 254 240 223 206 196 201 203 198 194 200 209 195 179 182 192 272 294 205 208 208 193 191 178 152 166 195 273 268 202 199 245 301 307 305 314 317 293
242 244 260 255 248 253 252 233 201 190 185 192 187 197 203 200 202 186 177 172 184 204 121 80 63 52 109 160 193 196 191 206 239 245 200 179 224 326 317 302 324 335 333
Height
1518 1520 1521 1522 1524 1525 1526 1527 1529 1530 1532 1534 1536 1538 1539 1541 1542 1544 1545 1547 1548 1549 1550 1551 1552 1554 1555 1555 1556 1557 1558 1558 1559 1560 1560 1561 1561 1562 1562 1562 1562 1563 1563
1516 1517 1519 1520 1522 1523 1524 1525 1527 1528 1530 1532 1534 1535 1537 1539 1540 1542 1543 1545 1546 1548 1549 1550 1551 1552 1553 1554 1555 1556 1556 1557 1558 1558 1559 1559 1560 1560 1560 1561 1561 1561 1561
1514 1515 1516 1517 1519 1520 1522 1523 1525 1526 1528 1530 1531 1533 1535 1537 1538 1540 1541 1543 1544 1546 1547 1548 1549 1550 1551 1552 1553 1554 1555 1556 1556 1557 1558 1558 1558 1558 1559 1559 1560 1560 1560
1511 1512 1513 1515 1516 1518 1519 1521 1522 1524 1525 1527 1529 1531 1532 1534 1536 1537 1539 1540 1542 1543 1544 1546 1547 1548 1549 1550 1551 1552 1553 1554 1554 1555 1556 1556 1556 1557 1557 1557 1558 1558 1558
1509 1510 1511 1512 1514 1515 1517 1518 1520 1521 1523 1525 1526 1528 1530 1532 1534 1535 1537 1538 1539 1541 1542 1543 1544 1545 1546 1548 1549 1550 1551 1551 1552 1553 1553 1554 1555 1555 1555 1556 1556 1556 1557
1506 1507 1509 1510 1511 1513 1514 1516 1517 1519 1520 1522 1524 1526 1527 1529 1531 1532 1534 1535 1537 1538 1539 1540 1541 1543 1544 1545 1546 1547 1548 1549 1550 1550 1551 1552 1552 1553 1553 1554 1554 1555 1555
1503 1505 1506 1507 1509 1510 1512 1513 1515 1516 1518 1519 1521 1523 1525 1527 1528 1529 1531 1532 1534 1535 1536 1537 1538 1540 1541 1542 1543 1544 1545 1546 1547 1548 1548 1549 1550 1550 1551 1551 1552 1552 1553
1501 1502 1503 1504 1506 1507 1509 1510 1512 1513 1515 1516 1518 1520 1522 1524 1525 1526 1528 1529 1530 1532 1533 1534 1535 1536 1538 1539 1540 1541 1542 1543 1544 1545 1545 1546 1547 1548 1548 1549 1549 1550 1550
1497 1499 1500 1501 1503 1504 1506 1507 1509 1510 1512 1514 1515 1518 1519 1520 1521 1523 1524 1526 1527 1528 1529 1531 1532 1533 1534 1536 1537 1538 1539 1540 1541 1541 1542 1543 1544 1544 1545 1546 1546 1546 1547
1494 1496 1497 1498 1499 1501 1503 1504 1506 1507 1509 1510 1512 1514 1516 1517 1519 1519 1521 1522 1524 1525 1526 1528 1528 1530 1531 1532 1533 1534 1535 1536 1537 1538 1538 1539 1540 1541 1541 1542 1542 1543 1543
1491 1492 1493 1495 1496 1498 1499 1501 1502 1504 1505 1507 1508 1510 1512 1514 1515 1517 1517 1519 1520 1522 1523 1524 1525 1526 1528 1528 1530 1531 1532 1533 1534 1534 1535 1536 1536 1537 1537 1538 1538 1539 1539
1488 1489 1490 1492 1493 1495 1496 1498 1499 1501 1502 1504 1505 1507 1509 1510 1512 1513 1514 1515 1516 1518 1519 1520 1521 1523 1524 1525 1526 1527 1528 1529 1529 1530 1531 1532 1532 1533 1533 1533 1534 1534 1534
1484 1485 1487 1488 1490 1492 1493 1494 1496 1497 1499 1500 1502 1503 1505 1507 1508 1510 1511 1512 1513 1514 1515 1516 1517 1518 1519 1521 1522 1523 1523 1524 1525 1526 1527 1527 1528 1528 1528 1529 1529 1529 1530
1481 1482 1484 1485 1486 1488 1490 1491 1492 1494 1495 1497 1498 1500 1501 1503 1504 1506 1507 1509 1509 1510 1511 1511 1513 1514 1515 1516 1517 1518 1519 1520 1521 1521 1522 1522 1523 1524 1524 1524 1524 1524 1525
1478 1479 1480 1482 1483 1484 1486 1487 1489 1490 1492 1493 1494 1495 1497 1498 1500 1502 1503 1505 1506 1506 1506 1507 1508 1509 1511 1512 1512 1513 1514 1515 1516 1516 1517 1517 1518 1518 1518 1519 1519 1519 1519
1475 1476 1477 1478 1479 1481 1482 1483 1484 1486 1487 1488 1490 1491 1492 1493 1495 1497 1499 1501 1502 1503 1502 1502 1504 1505 1506 1507 1507 1508 1509 1510 1510 1511 1511 1512 1512 1513 1513 1513 1514 1514 1514
1471 1472 1473 1474 1475 1477 1478 1479 1480 1481 1482 1483 1484 1486 1487 1489 1490 1492 1494 1496 1497 1498 1498 1498 1499 1500 1501 1502 1502 1503 1504 1504 1505 1505 1506 1506 1507 1507 1508 1508 1508 1509 1509
1467 1468 1469 1470 1471 1472 1474 1475 1475 1477 1478 1478 1480 1481 1482 1484 1485 1487 1489 1490 1492 1493 1494 1493 1494 1495 1496 1497 1497 1497 1498 1499 1500 1500 1501 1501 1502 1502 1503 1503 1503 1503 1503
1463 1464 1465 1466 1467 1468 1469 1470 1471 1472 1473 1474 1475 1476 1477 1479 1480 1482 1484 1485 1486 1488 1489 1489 1489 1490 1491 1492 1492 1492 1493 1494 1495 1495 1496 1496 1497 1497 1497 1498 1497 1497 1497
1459 1460 1461 1462 1463 1464 1465 1466 1467 1468 1469 1470 1471 1472 1473 1474 1476 1477 1478 1480 1481 1482 1483 1484 1484 1485 1486 1486 1487 1487 1488 1489 1490 1491 1491 1492 1492 1492 1492 1492 1492 1492 1492
1455 1456 1457 1458 1458 1459 1460 1461 1462 1463 1464 1465 1466 1467 1469 1470 1471 1473 1474 1475 1476 1476 1477 1478 1479 1479 1480 1481 1482 1483 1483 1484 1485 1486 1486 1486 1487 1487 1487 1487 1487 1486 1486
1451 1452 1453 1454 1454 1455 1456 1457 1458 1459 1460 1461 1461 1462 1464 1465 1466 1468 1469 1470 1471 1472 1473 1473 1474 1475 1475 1476 1477 1478 1479 1479 1479 1481 1481 1481 1482 1481 1482 1481 1481 1481 1480
1447 1448 1449 1449 1450 1451 1452 1453 1454 1455 1456 1456 1457 1458 1459 1460 1462 1463 1464 1465 1466 1467 1468 1469 1469 1470 1471 1472 1473 1473 1474 1475 1475 1476 1476 1475 1477 1476 1476 1476 1476 1475 1475
1443 1444 1445 1445 1446 1447 1448 1448 1450 1450 1451 1452 1452 1453 1455 1456 1457 1458 1459 1460 1461 1462 1463 1464 1465 1465 1467 1468 1469 1470 1470 1470 1471 1472 1472 1471 1471 1471 1471 1471 1470 1470 1469
1439 1440 1441 1441 1442 1442 1443 1444 1445 1446 1447 1447 1448 1450 1450 1452 1453 1454 1455 1456 1457 1458 1459 1460 1461 1461 1462 1463 1464 1465 1465 1466 1465 1466 1467 1467 1466 1466 1466 1465 1465 1465 1465
1436 1436 1437 1438 1438 1439 1440 1441 1441 1442 1443 1443 1445 1446 1447 1448 1450 1451 1452 1452 1453 1454 1454 1455 1456 1457 1458 1459 1460 1461 1461 1462 1462 1462 1463 1463 1462 1462 1461 1461 1461 1461 1461